GW2045 Weather Reports


time (UTC)temp
C
wind
direction
speed
KPH
gust
KPH
rain 1hr
cm
rain 24hr
cm
rain mn
cm
humidity
%
barometer
mb
20260503030645 21 339 3.2 9.7 0.00 0.00 0.00 35 1010.8
20260503030142 21 333 3.2 9.7 0.00 0.00 0.00 35 1010.8
20260503025638 21 323 4.8 8.0 0.00 0.00 0.00 35 1010.5
20260503025137 22 342 4.8 9.7 0.00 0.00 0.00 35 1010.5
20260503024633 22 358 4.8 9.7 0.00 0.00 0.00 34 1010.5
20260503024130 22 340 3.2 8.0 0.00 0.00 0.00 34 1010.5
20260503023627 22 1 1.6 4.8 0.00 0.00 0.00 34 1010.8
20260503023124 22 349 1.6 4.8 0.00 0.00 0.00 34 1010.5
20260503022620 23 349 1.6 4.8 0.00 0.00 0.00 34 1010.5
20260503022115 23 352 3.2 4.8 0.00 0.00 0.00 32 1010.5
20260503021612 23 353 3.2 8.0 0.00 0.00 0.00 31 1010.5
20260503021108 23 345 3.2 8.0 0.00 0.00 0.00 31 1010.5
20260503020606 23 354 3.2 9.7 0.00 0.00 0.00 31 1010.5
20260503015559 24 351 3.2 9.7 0.00 0.00 0.00 30 1010.5
20260503015057 24 359 3.2 9.7 0.00 0.00 0.00 29 1010.5
20260503014552 24 348 3.2 8.0 0.00 0.00 0.00 29 1010.5
20260503014050 24 356 3.2 8.0 0.00 0.00 0.00 29 1010.8
20260503013547 25 348 3.2 8.0 0.00 0.00 0.00 28 1010.8
20260503013045 25 10 3.2 8.0 0.00 0.00 0.00 28 1010.8
20260503012542 25 4 4.8 11.3 0.00 0.00 0.00 27 1010.8
20260503012038 25 343 4.8 12.9 0.00 0.00 0.00 27 1010.8
20260503011535 25 311 4.8 12.9 0.00 0.00 0.00 27 1010.8
20260503011033 25 343 4.8 12.9 0.00 0.00 0.00 26 1010.8
20260503010529 25 0 6.4 12.9 0.00 0.00 0.00 26 1010.8
20260503010027 25 348 6.4 14.5 0.00 0.00 0.00 25 1010.8
20260503005523 25 343 6.4 12.9 0.00 0.00 0.00 24 1010.8
20260503005021 25 7 6.4 12.9 0.00 0.00 0.00 24 1010.8
20260503004516 25 6 4.8 11.3 0.00 0.00 0.00 24 1010.8
20260503004015 25 350 4.8 11.3 0.00 0.00 0.00 23 1010.8
20260503003511 25 352 4.8 12.9 0.00 0.00 0.00 22 1010.8
20260503003009 25 328 4.8 12.9 0.00 0.00 0.00 20 1010.8
20260503002506 25 2 1.6 9.7 0.00 0.00 0.00 20 1010.8
20260503002002 25 19 0.0 3.2 0.00 0.00 0.00 20 1010.8
20260503001458 25 3 0.0 0.0 0.00 0.00 0.00 20 1010.8
20260503000956 25 334 1.6 8.0 0.00 0.00 0.00 19 1011.2
20260503000453 25 334 3.2 8.0 0.00 0.00 0.00 19 1010.8
20260502235950 25 347 3.2 8.0 0.00 0.00 0.00 19 1011.2
20260502235447 25 356 3.2 8.0 0.00 0.00 0.00 20 1011.2
20260502234944 25 4 3.2 8.0 0.00 0.00 0.00 20 1011.2
20260502234441 25 15 3.2 8.0 0.00 0.00 0.00 19 1011.2
20260502233938 25 22 3.2 12.9 0.00 0.00 0.00 19 1011.2
20260502233433 25 345 3.2 12.9 0.00 0.00 0.00 20 1011.2
20260502232930 25 348 1.6 11.3 0.00 0.00 0.00 21 1011.2
20260502232427 25 344 4.8 14.5 0.00 0.00 0.00 20 1011.2
20260502231924 25 59 4.8 14.5 0.00 0.00 0.00 21 1011.2
20260502231421 25 345 3.2 11.3 0.00 0.00 0.00 20 1011.2
20260502230919 26 17 1.6 6.4 0.00 0.00 0.00 20 1011.2
20260502230417 25 16 3.2 12.9 0.00 0.00 0.00 20 1011.5
20260502225915 25 85 1.6 12.9 0.00 0.00 0.00 20 1011.5
20260502225411 25 357 1.6 4.8 0.00 0.00 0.00 21 1011.5
20260502224908 25 171 1.6 4.8 0.00 0.00 0.00 19 1011.5
20260502224403 25 223 1.6 6.4 0.00 0.00 0.00 20 1011.5
20260502223901 25 326 3.2 9.7 0.00 0.00 0.00 19 1011.5
20260502223359 25 150 3.2 9.7 0.00 0.00 0.00 19 1011.5
20260502222856 25 135 3.2 9.7 0.00 0.00 0.00 20 1011.9
20260502222354 26 135 3.2 11.3 0.00 0.00 0.00 22 1011.9
20260502221849 26 147 4.8 11.3 0.00 0.00 0.00 19 1011.9
20260502221346 26 104 3.2 9.7 0.00 0.00 0.00 23 1011.9
20260502220843 25 208 3.2 8.0 0.00 0.00 0.00 20 1011.9
20260502220339 25 255 3.2 12.9 0.00 0.00 0.00 22 1012.3
20260502215835 26 358 3.2 12.9 0.00 0.00 0.00 19 1012.3
20260502215333 25 119 4.8 11.3 0.00 0.00 0.00 19 1012.3
20260502214830 26 0 4.8 11.3 0.00 0.00 0.00 18 1012.3
20260502214326 26 218 3.2 9.7 0.00 0.00 0.00 19 1012.3
20260502213824 26 115 3.2 11.3 0.00 0.00 0.00 21 1012.3
20260502213321 26 107 3.2 11.3 0.00 0.00 0.00 21 1012.3
20260502212820 26 87 3.2 11.3 0.00 0.00 0.00 20 1012.6
20260502212318 26 163 3.2 6.4 0.00 0.00 0.00 21 1012.6
20260502211815 26 174 1.6 8.0 0.00 0.00 0.00 22 1012.6
20260502211310 26 281 3.2 8.0 0.00 0.00 0.00 21 1012.6
20260502210808 26 176 3.2 8.0 0.00 0.00 0.00 23 1012.9
20260502210305 26 25 3.2 11.3 0.00 0.00 0.00 22 1012.9
20260502205802 25 94 3.2 11.3 0.00 0.00 0.00 22 1012.9
20260502205258 25 67 3.2 11.3 0.00 0.00 0.00 23 1012.9
20260502204755 25 7 3.2 12.9 0.00 0.00 0.00 25 1012.9
20260502204252 26 84 3.2 12.9 0.00 0.00 0.00 24 1012.9
20260502203750 26 106 3.2 9.7 0.00 0.00 0.00 27 1012.9
20260502203248 25 79 3.2 9.7 0.00 0.00 0.00 29 1012.9
20260502202742 25 134 1.6 9.7 0.00 0.00 0.00 26 1012.9
20260502202240 25 86 1.6 6.4 0.00 0.00 0.00 27 1013.4
20260502201738 25 291 1.6 8.0 0.00 0.00 0.00 27 1013.4
20260502201234 25 189 1.6 8.0 0.00 0.00 0.00 30 1013.4
20260502200730 25 172 1.6 8.0 0.00 0.00 0.00 30 1013.7
20260502200226 25 272 1.6 4.8 0.00 0.00 0.00 30 1013.7
20260502195725 25 86 1.6 4.8 0.00 0.00 0.00 31 1013.7
20260502195221 23 8 1.6 8.0 0.00 0.00 0.00 32 1013.7
20260502194717 23 356 1.6 6.4 0.00 0.00 0.00 32 1014.1
20260502194215 23 189 0.0 6.4 0.00 0.00 0.00 31 1014.1
20260502193710 22 156 0.0 3.2 0.00 0.00 0.00 35 1014.1
20260502193209 22 337 1.6 4.8 0.00 0.00 0.00 37 1014.1
20260502192703 22 329 1.6 4.8 0.00 0.00 0.00 34 1014.5
20260502192201 22 335 1.6 6.4 0.00 0.00 0.00 35 1014.5
20260502191657 23 324 1.6 6.4 0.00 0.00 0.00 34 1014.5
20260502191155 23 349 3.2 11.3 0.00 0.00 0.00 38 1014.5
20260502190652 22 6 1.6 11.3 0.00 0.00 0.00 37 1014.5
20260502190150 22 204 1.6 4.8 0.00 0.00 0.00 39 1014.5
20260502185644 22 6 1.6 6.4 0.00 0.00 0.00 38 1014.8
20260502185141 21 329 1.6 6.4 0.00 0.00 0.00 39 1014.8
20260502184637 21 126 1.6 8.0 0.00 0.00 0.00 37 1014.8
20260502184133 21 5 1.6 8.0 0.00 0.00 0.00 39 1014.8
20260502183630 21 152 1.6 4.8 0.00 0.00 0.00 39 1014.8
20260502183126 21 20 1.6 8.0 0.00 0.00 0.00 39 1015.2
20260502182621 21 323 1.6 8.0 0.00 0.00 0.00 40 1015.2
20260502182117 21 350 4.8 12.9 0.00 0.00 0.00 40 1015.2
20260502181615 20 331 3.2 12.9 0.00 0.00 0.00 41 1015.5
20260502181114 20 346 3.2 11.3 0.00 0.00 0.00 47 1015.5
20260502180610 20 69 3.2 11.3 0.00 0.00 0.00 42 1015.5
20260502180108 20 351 4.8 12.9 0.00 0.00 0.00 42 1015.5
20260502164013 16 160 1.6 8.0 0.00 0.00 0.00 52 1016.3
20260502163509 15 197 1.6 8.0 0.00 0.00 0.00 53 1016.3
20260502163006 15 336 3.2 8.0 0.00 0.00 0.00 57 1016.0
20260502162503 15 331 1.6 8.0 0.00 0.00 0.00 58 1016.0
20260502162000 13 339 1.6 4.8 0.00 0.00 0.00 65 1016.3
20260502161456 13 343 1.6 4.8 0.00 0.00 0.00 64 1016.0
20260502160955 12 325 1.6 3.2 0.00 0.00 0.00 63 1016.0
20260502160452 11 327 1.6 6.4 0.00 0.00 0.00 66 1016.0
20260502151941 8 344 4.8 11.3 0.00 0.00 0.00 80 1016.0
20260502151438 8 354 4.8 11.3 0.00 0.00 0.00 84 1016.0
20260502150935 7 323 4.8 9.7 0.00 0.00 0.00 86 1016.0
20260502150432 7 4 3.2 9.7 0.00 0.00 0.00 88 1016.0
20260502130318 5 77 0.0 0.0 0.00 0.00 0.00 86 1015.2
20260502123803 5 159 0.0 0.0 0.00 0.00 0.00 85 1014.8
20260502123300 5 159 0.0 0.0 0.00 0.00 0.00 84 1014.8
20260502122757 5 159 0.0 0.0 0.00 0.00 0.00 84 1014.8
20260502122253 5 159 0.0 0.0 0.00 0.00 0.00 83 1014.8
20260502121751 5 159 0.0 0.0 0.00 0.00 0.00 83 1014.8
20260502121249 5 159 0.0 0.0 0.00 0.00 0.00 83 1014.8
20260502120745 5 159 0.0 0.0 0.00 0.00 0.00 83 1014.8
20260502120242 6 159 0.0 0.0 0.00 0.00 0.00 82 1014.8
20260502115740 6 159 0.0 0.0 0.00 0.00 0.00 82 1014.8
20260502115237 6 159 0.0 0.0 0.00 0.00 0.00 82 1014.8
20260502114732 6 159 0.0 0.0 0.00 0.00 0.00 82 1015.2
20260502114230 6 159 0.0 0.0 0.00 0.00 0.00 81 1015.2
20260502113727 6 159 0.0 0.0 0.00 0.00 0.00 82 1015.2
20260502113224 6 159 0.0 0.0 0.00 0.00 0.00 82 1014.8
20260502112722 6 159 0.0 0.0 0.00 0.00 0.00 82 1014.8
20260502112220 7 159 0.0 0.0 0.00 0.00 0.00 83 1014.8
20260502111717 7 159 0.0 0.0 0.00 0.00 0.00 83 1014.8
20260502111214 7 159 0.0 0.0 0.00 0.00 0.00 84 1015.2
20260502110712 7 159 0.0 0.0 0.00 0.00 0.00 85 1015.2
20260502110209 7 159 0.0 0.0 0.00 0.00 0.00 83 1015.2
20260502105707 6 159 0.0 0.0 0.00 0.00 0.00 80 1015.2
20260502105203 6 159 0.0 0.0 0.00 0.00 0.00 76 1015.2
20260502104701 6 159 0.0 0.0 0.00 0.00 0.00 75 1015.2
20260502104158 6 159 0.0 0.0 0.00 0.00 0.00 74 1015.2
20260502103655 6 159 0.0 0.0 0.00 0.00 0.00 74 1015.2
20260502103153 6 159 0.0 0.0 0.00 0.00 0.00 73 1015.2
20260502102650 6 159 0.0 0.0 0.00 0.00 0.00 73 1015.2
20260502102147 6 159 0.0 0.0 0.00 0.00 0.00 73 1015.2
20260502101645 6 159 0.0 0.0 0.00 0.00 0.00 72 1015.2
20260502101143 6 159 0.0 0.0 0.00 0.00 0.00 72 1015.2
20260502100641 7 159 0.0 0.0 0.00 0.00 0.00 72 1015.2
20260502100139 7 159 0.0 0.0 0.00 0.00 0.00 72 1014.8
20260502091113 7 159 0.0 0.0 0.00 0.00 0.00 67 1015.2
20260502090610 7 159 0.0 0.0 0.00 0.00 0.00 66 1015.2
20260502090107 7 159 0.0 0.0 0.00 0.00 0.00 65 1015.2
20260502071504 10 98 0.0 0.0 0.00 0.00 0.00 58 1015.2
20260502071003 10 98 0.0 0.0 0.00 0.00 0.00 58 1015.2
20260502070500 10 98 0.0 0.0 0.00 0.00 0.00 57 1015.5
20260502065958 10 98 0.0 1.6 0.00 0.00 0.00 56 1015.2
20260502065456 10 98 0.0 1.6 0.00 0.00 0.00 56 1015.5
20260502064954 10 98 0.0 1.6 0.00 0.00 0.00 56 1015.5
20260502064452 10 98 0.0 1.6 0.00 0.00 0.00 55 1015.5
20260502063949 10 98 0.0 1.6 0.00 0.00 0.00 54 1015.5
20260502063447 10 98 0.0 1.6 0.00 0.00 0.00 54 1015.5
20260502062944 11 98 0.0 0.0 0.00 0.00 0.00 53 1015.5
20260502062441 11 98 0.0 0.0 0.00 0.00 0.00 53 1015.5
20260502061940 11 98 0.0 0.0 0.00 0.00 0.00 53 1015.5
20260502061437 11 98 0.0 0.0 0.00 0.00 0.00 52 1015.2
20260502060933 11 98 0.0 0.0 0.00 0.00 0.00 51 1015.2
20260502060428 11 98 0.0 1.6 0.00 0.00 0.00 51 1015.2
20260502055925 11 98 0.0 1.6 0.00 0.00 0.00 50 1015.2
20260502055424 11 98 0.0 0.0 0.00 0.00 0.00 50 1015.5
20260502054923 12 98 0.0 1.6 0.00 0.00 0.00 49 1015.2
20260502054420 12 98 0.0 1.6 0.00 0.00 0.00 49 1015.5
20260502053918 12 98 0.0 3.2 0.00 0.00 0.00 48 1015.2
20260502053415 12 98 0.0 3.2 0.00 0.00 0.00 48 1015.5
20260502052912 12 98 0.0 3.2 0.00 0.00 0.00 47 1015.2
20260502052411 12 100 0.0 3.2 0.00 0.00 0.00 47 1015.2
20260502051908 12 100 0.0 3.2 0.00 0.00 0.00 47 1015.5
20260502051406 13 96 0.0 1.6 0.00 0.00 0.00 47 1015.2
20260502050903 13 96 0.0 1.6 0.00 0.00 0.00 47 1015.5
20260502050359 13 96 0.0 3.2 0.00 0.00 0.00 46 1015.5
20260502045856 13 96 1.6 8.0 0.00 0.00 0.00 45 1015.5
20260502045353 13 127 1.6 8.0 0.00 0.00 0.00 46 1015.5
20260502044850 13 97 0.0 3.2 0.00 0.00 0.00 47 1015.2
20260502044346 13 113 1.6 3.2 0.00 0.00 0.00 47 1015.5
20260502043843 13 115 0.0 3.2 0.00 0.00 0.00 47 1015.5
20260502043341 14 87 0.0 3.2 0.00 0.00 0.00 47 1015.5
20260502042840 14 87 1.6 4.8 0.00 0.00 0.00 46 1015.5
20260502042338 15 85 1.6 4.8 0.00 0.00 0.00 46 1015.5
20260502041835 15 65 0.0 3.2 0.00 0.00 0.00 46 1015.5
20260502041332 15 357 0.0 0.0 0.00 0.00 0.00 46 1015.5
20260502040829 15 346 0.0 0.0 0.00 0.00 0.00 45 1015.2
20260502040326 16 346 0.0 0.0 0.00 0.00 0.00 44 1015.2
20260502035822 16 346 0.0 0.0 0.00 0.00 0.00 44 1015.2
20260502035319 16 346 0.0 3.2 0.00 0.00 0.00 43 1015.2
20260502034816 16 346 0.0 3.2 0.00 0.00 0.00 42 1015.2
20260502034315 17 346 0.0 0.0 0.00 0.00 0.00 41 1015.2
20260502033813 17 346 0.0 1.6 0.00 0.00 0.00 41 1015.2
20260502033310 17 346 0.0 1.6 0.00 0.00 0.00 40 1015.2
20260502032807 18 346 0.0 1.6 0.00 0.00 0.00 39 1015.2
20260502032305 18 345 1.6 3.2 0.00 0.00 0.00 37 1015.2
20260502031800 18 345 1.6 4.8 0.00 0.00 0.00 37 1014.8
20260502031258 19 352 3.2 4.8 0.00 0.00 0.00 35 1014.8